FW2710 Weather Reports


Display with metric or nautical units.
time (UTC)temp
F
wind
direction
speed
MPH
gust
MPH
rain 1hr
in
rain 24hr
in
rain mn
in
humidity
%
barometer
mb
20260508174023 55 287 0.0 4.0 0.04 0.20 0.05 86 1010.4
20260508173526 55 0 0.0 7.0 0.04 0.20 0.05 87 1010.3
20260508173043 55 0 0.0 7.0 0.04 0.20 0.05 87 1010.4
20260508172525 55 0 0.0 7.0 0.05 0.20 0.05 86 1010.5
20260508172027 55 0 0.0 4.0 0.05 0.20 0.05 86 1010.2
20260508171544 55 0 0.0 4.0 0.04 0.19 0.04 85 1011.0
20260508171022 55 287 0.0 4.0 0.03 0.18 0.03 84 1011.1
20260508170525 55 287 0.0 2.0 0.02 0.17 0.02 84 1011.0
20260508170041 55 0 0.0 1.0 0.02 0.17 0.02 83 1010.9
20260508165522 56 0 0.0 0.0 0.01 0.16 0.01 83 1011.0
20260508165025 56 0 0.0 0.0 0.01 0.16 0.01 82 1011.0
20260508164536 56 0 0.0 0.0 0.01 0.16 0.01 81 1010.9
20260508164029 56 0 0.0 0.0 0.01 0.16 0.01 81 1010.8
20260508163525 56 0 0.0 0.0 0.01 0.16 0.01 81 1010.8
20260508163046 56 0 0.0 0.0 0.01 0.16 0.01 80 1011.0
20260508162525 56 0 0.0 2.0 0.00 0.15 0.00 79 1010.9
20260508162026 57 0 0.0 6.0 0.00 0.15 0.00 78 1011.1
20260508161543 57 0 0.0 6.0 0.00 0.15 0.00 76 1011.0
20260508161026 57 0 0.0 7.0 0.00 0.15 0.00 73 1011.1
20260508160524 58 0 1.0 7.0 0.00 0.15 0.00 72 1011.2
20260508160059 58 287 0.0 7.0 0.00 0.15 0.00 72 1011.3
20260508155527 58 0 1.0 8.0 0.00 0.15 0.00 72 1011.3
20260508155027 58 287 1.0 9.0 0.00 0.15 0.00 71 1011.4
20260508154539 59 287 0.0 9.0 0.00 0.15 0.00 72 1011.3
20260508154030 59 287 0.0 9.0 0.00 0.15 0.00 71 1011.4
20260508153526 59 0 1.0 11.0 0.00 0.15 0.00 71 1011.5
20260508153044 60 0 2.0 11.0 0.00 0.15 0.00 69 1011.4
20260508152527 60 0 3.0 11.0 0.00 0.15 0.00 70 1011.6
20260508152025 60 287 1.0 10.0 0.00 0.15 0.00 72 1011.6
20260508151538 59 287 0.0 10.0 0.00 0.15 0.00 71 1011.4
20260508151026 60 287 1.0 12.0 0.00 0.15 0.00 69 1011.4
20260508150525 60 0 2.0 12.0 0.00 0.15 0.00 69 1011.0
20260508150043 60 287 1.0 8.0 0.00 0.15 0.00 70 1011.1
20260508145525 60 0 1.0 8.0 0.00 0.15 0.00 71 1011.1
20260508145029 59 0 1.0 8.0 0.00 0.15 0.00 70 1011.2
20260508144543 59 0 1.0 8.0 0.00 0.15 0.00 69 1011.2
20260508144025 59 0 2.0 8.0 0.00 0.15 0.00 71 1011.3
20260508143526 59 287 1.0 8.0 0.00 0.15 0.00 71 1011.3
20260508143053 59 287 1.0 9.0 0.00 0.15 0.00 72 1011.3
20260508142525 58 287 3.0 9.0 0.00 0.15 0.00 73 1011.3
20260508142026 58 287 4.0 8.0 0.00 0.15 0.00 73 1011.3
20260508141548 58 0 2.0 8.0 0.00 0.15 0.00 74 1011.4
20260508141026 58 0 3.0 8.0 0.00 0.15 0.00 72 1011.4
20260508140525 57 287 1.0 7.0 0.00 0.15 0.00 74 1011.3
20260508140041 57 287 1.0 7.0 0.00 0.15 0.00 75 1011.3
20260508135526 56 287 1.0 8.0 0.00 0.15 0.00 75 1011.4
20260508135026 56 287 0.0 8.0 0.00 0.15 0.00 75 1011.4
20260508134535 56 287 0.0 6.0 0.00 0.15 0.00 75 1011.5
20260508134026 55 0 1.0 6.0 0.00 0.15 0.00 75 1011.4
20260508133525 55 287 1.0 6.0 0.00 0.15 0.00 75 1011.4
20260508133052 55 0 0.0 7.0 0.00 0.15 0.00 77 1011.4
20260508132525 55 0 0.0 7.0 0.00 0.15 0.00 77 1011.4
20260508132027 54 0 0.0 6.0 0.00 0.15 0.00 77 1011.5
20260508131540 54 287 0.0 6.0 0.00 0.15 0.00 79 1011.4
20260508131024 54 0 0.0 2.0 0.00 0.15 0.00 79 1011.4
20260508130526 54 0 0.0 2.0 0.00 0.15 0.00 81 1011.6
20260508130057 53 0 0.0 2.0 0.00 0.15 0.00 81 1011.6
20260508125525 53 287 0.0 4.0 0.00 0.15 0.00 82 1011.5
20260508125026 52 0 0.0 4.0 0.00 0.15 0.00 83 1011.6
20260508124538 52 287 0.0 2.0 0.00 0.15 0.00 84 1011.6
20260508124025 51 0 0.0 2.0 0.00 0.15 0.00 84 1011.7
20260508123525 51 0 0.0 0.0 0.00 0.15 0.00 86 1011.7
20260508123043 50 0 0.0 0.0 0.00 0.15 0.00 86 1011.7
20260508122523 50 0 0.0 0.0 0.00 0.15 0.00 87 1011.8
20260508122025 49 0 0.0 0.0 0.00 0.15 0.00 88 1011.9
20260508121559 49 0 0.0 0.0 0.00 0.15 0.00 89 1011.8
20260508121025 48 0 0.0 0.0 0.00 0.15 0.00 89 1011.9
20260508120526 48 0 0.0 0.0 0.00 0.15 0.00 90 1011.9
20260508120039 48 0 0.0 0.0 0.00 0.15 0.00 90 1011.9
20260508115525 47 0 0.0 0.0 0.00 0.15 0.00 90 1011.7
20260508115024 47 0 0.0 0.0 0.00 0.15 0.00 90 1011.9
20260508114539 47 0 0.0 0.0 0.00 0.15 0.00 90 1011.8
20260508114024 47 0 0.0 0.0 0.00 0.15 0.00 90 1011.8
20260508113528 47 0 0.0 0.0 0.00 0.15 0.00 90 1011.7
20260508113047 47 0 0.0 0.0 0.00 0.15 0.00 90 1011.4
20260508112526 46 0 0.0 0.0 0.00 0.15 0.00 90 1011.4
20260508112025 46 0 0.0 0.0 0.00 0.15 0.00 90 1011.2
20260508111535 46 0 0.0 0.0 0.00 0.15 0.00 90 1011.3
20260508111024 46 0 0.0 0.0 0.00 0.15 0.00 90 1011.4
20260508110525 46 0 0.0 0.0 0.00 0.15 0.00 90 1011.3
20260508110047 46 0 0.0 0.0 0.00 0.15 0.00 90 1011.3
20260508105525 46 0 0.0 0.0 0.00 0.15 0.00 90 1011.5
20260508105025 46 0 0.0 0.0 0.00 0.15 0.00 90 1011.3
20260508104539 46 0 0.0 0.0 0.00 0.15 0.00 90 1011.4
20260508104025 47 0 0.0 0.0 0.00 0.15 0.00 90 1011.5
20260508103526 47 0 0.0 0.0 0.00 0.15 0.00 90 1011.5
20260508103040 47 0 0.0 0.0 0.00 0.15 0.00 90 1011.6
20260508102522 47 0 0.0 0.0 0.00 0.15 0.00 90 1011.6
20260508102024 47 0 0.0 0.0 0.00 0.15 0.00 90 1011.6
20260508101538 47 0 0.0 0.0 0.00 0.15 0.00 90 1011.5
20260508101028 47 0 0.0 0.0 0.00 0.15 0.00 90 1011.6
20260508100525 47 0 0.0 0.0 0.00 0.15 0.00 89 1011.6
20260508100041 48 0 0.0 0.0 0.00 0.15 0.00 89 1011.6
20260508095615 48 0 0.0 0.0 0.00 0.15 0.00 89 1011.6
20260508095024 48 0 0.0 0.0 0.00 0.15 0.00 89 1011.7
20260508094547 48 0 0.0 0.0 0.00 0.15 0.00 89 1011.8
20260508094028 48 0 0.0 0.0 0.00 0.15 0.00 89 1011.8
20260508093525 48 0 0.0 0.0 0.00 0.15 0.00 89 1011.7
20260508093039 48 0 0.0 0.0 0.00 0.15 0.00 89 1011.9
20260508092525 48 0 0.0 0.0 0.00 0.15 0.00 89 1012.0
20260508092024 48 0 0.0 0.0 0.00 0.15 0.00 89 1012.1
20260508091539 48 0 0.0 0.0 0.00 0.15 0.00 88 1012.1
20260508091026 48 0 0.0 0.0 0.00 0.15 0.00 88 1012.0
20260508090525 48 0 0.0 0.0 0.00 0.15 0.00 88 1011.9
20260508090040 48 0 0.0 0.0 0.00 0.15 0.00 87 1011.9
20260508085526 48 0 0.0 0.0 0.00 0.15 0.00 87 1011.9
20260508085026 48 0 0.0 0.0 0.00 0.15 0.00 87 1011.9
20260508084538 48 0 0.0 0.0 0.00 0.15 0.00 86 1012.0
20260508084028 48 0 0.0 0.0 0.00 0.15 0.00 86 1012.0
20260508083524 48 0 0.0 0.0 0.00 0.15 0.00 85 1012.1
20260508083122 49 0 0.0 0.0 0.00 0.15 0.00 85 1012.1
20260508082524 49 0 0.0 0.0 0.00 0.15 0.00 85 1012.2
20260508082025 49 0 0.0 0.0 0.00 0.15 0.00 85 1012.1
20260508081548 49 0 0.0 0.0 0.00 0.15 0.00 85 1012.1
20260508081025 49 0 0.0 0.0 0.00 0.15 0.00 85 1012.2
20260508080525 49 0 0.0 0.0 0.00 0.15 0.00 85 1012.4
20260508080046 49 0 0.0 0.0 0.00 0.15 0.00 85 1012.4
20260508075525 49 0 0.0 0.0 0.00 0.15 0.00 86 1012.3
20260508075024 49 0 0.0 0.0 0.00 0.15 0.00 86 1012.3
20260508074539 49 0 0.0 0.0 0.00 0.15 0.00 87 1012.3
20260508074025 48 0 0.0 0.0 0.00 0.15 0.00 88 1012.4
20260508073526 48 0 0.0 0.0 0.00 0.15 0.00 89 1012.3
20260508073039 47 0 0.0 0.0 0.00 0.15 0.00 89 1012.4
20260508072526 47 0 0.0 0.0 0.00 0.15 0.00 89 1012.4
20260508072023 47 0 0.0 0.0 0.00 0.15 0.00 88 1012.2
20260508071544 47 0 0.0 0.0 0.00 0.15 0.00 88 1011.8
20260508071023 48 0 0.0 0.0 0.00 0.15 0.00 88 1011.8
20260508070527 48 0 0.0 0.0 0.00 0.15 0.00 88 1011.9
20260508070044 48 0 0.0 0.0 0.00 0.15 0.00 88 1011.9
20260508065525 48 0 0.0 0.0 0.00 0.15 0.00 89 1011.9
20260508065025 48 0 0.0 0.0 0.00 0.15 0.00 89 1011.8
20260508064600 48 0 0.0 0.0 0.00 0.15 0.00 89 1011.8
20260508064025 48 0 0.0 0.0 0.00 0.15 0.00 89 1011.9
20260508063523 48 0 0.0 0.0 0.00 0.15 0.00 89 1012.0
20260508063038 48 0 0.0 0.0 0.00 0.15 0.00 89 1012.0
20260508062522 48 0 0.0 0.0 0.00 0.15 0.00 89 1012.1
20260508062023 47 0 0.0 0.0 0.00 0.15 0.00 89 1012.1
20260508061545 47 0 0.0 0.0 0.00 0.15 0.00 90 1012.1
20260508061029 47 0 0.0 0.0 0.00 0.15 0.00 90 1012.2
20260508060522 47 0 0.0 0.0 0.00 0.15 0.00 90 1012.2
20260508060045 47 0 0.0 0.0 0.00 0.15 0.00 90 1012.2
20260508055523 47 0 0.0 0.0 0.00 0.15 0.00 90 1012.3
20260508055023 47 0 0.0 0.0 0.00 0.15 0.00 90 1012.4
20260508054541 47 0 0.0 0.0 0.00 0.15 0.00 90 1012.4
20260508054022 47 0 0.0 0.0 0.00 0.15 0.00 90 1012.5
20260508053522 47 0 0.0 0.0 0.00 0.15 0.00 90 1012.6
20260508053038 47 0 0.0 0.0 0.00 0.15 0.00 90 1012.4
20260508052525 47 0 0.0 0.0 0.00 0.15 0.00 90 1012.3
20260508052022 47 0 0.0 0.0 0.00 0.15 0.00 90 1012.4
20260508051539 47 0 0.0 0.0 0.00 0.15 0.00 90 1012.4
20260508051023 47 0 0.0 0.0 0.00 0.15 0.00 90 1012.4
20260508050523 47 0 0.0 0.0 0.00 0.15 0.00 90 1012.5
20260508050045 48 0 0.0 0.0 0.00 0.15 0.00 90 1012.5
20260508045522 48 0 0.0 0.0 0.00 0.15 0.15 90 1012.5
20260508045023 48 0 0.0 0.0 0.01 0.15 0.15 90 1012.6
20260508044538 48 0 0.0 0.0 0.03 0.15 0.15 89 1012.6
20260508044021 48 0 0.0 0.0 0.04 0.15 0.15 89 1012.8
20260508043526 48 0 0.0 0.0 0.04 0.15 0.15 88 1012.8
20260508043040 48 0 0.0 0.0 0.04 0.15 0.15 88 1013.0
20260508042525 48 0 0.0 0.0 0.04 0.15 0.15 88 1013.0
20260508042024 49 0 0.0 0.0 0.04 0.15 0.15 88 1013.1
20260508041540 49 0 0.0 0.0 0.04 0.15 0.15 88 1013.0
20260508041025 49 0 0.0 0.0 0.04 0.15 0.15 88 1013.1
20260508040525 49 0 0.0 0.0 0.04 0.15 0.15 88 1013.2
20260508040038 49 0 0.0 0.0 0.04 0.15 0.15 88 1013.2
20260508035524 49 0 0.0 0.0 0.04 0.15 0.15 88 1013.2
20260508035027 49 0 0.0 0.0 0.02 0.13 0.13 87 1013.3
20260508034538 49 0 0.0 0.0 0.01 0.12 0.12 86 1013.7
20260508034024 49 0 0.0 0.0 0.01 0.11 0.11 85 1013.2
20260508033524 49 0 0.0 0.0 0.04 0.11 0.11 84 1012.6
20260508033042 49 0 0.0 0.0 0.04 0.11 0.11 84 1012.5
20260508032524 49 0 0.0 0.0 0.04 0.11 0.11 83 1012.6
20260508032024 50 0 0.0 0.0 0.04 0.11 0.11 82 1012.7
20260508031541 50 0 0.0 0.0 0.04 0.11 0.11 81 1012.7
20260508031024 50 0 0.0 0.0 0.04 0.11 0.11 80 1012.8
20260508030525 51 0 0.0 0.0 0.04 0.11 0.11 80 1012.8
20260508030041 51 0 0.0 0.0 0.04 0.11 0.11 79 1012.8
20260508025524 52 0 0.0 0.0 0.04 0.11 0.11 78 1012.8
20260508025029 52 0 0.0 4.0 0.04 0.11 0.11 77 1013.0
20260508024551 52 0 0.0 4.0 0.04 0.11 0.11 77 1012.9
20260508024025 52 0 0.0 4.0 0.03 0.10 0.10 78 1012.9
20260508023525 51 0 0.0 0.0 0.00 0.07 0.07 77 1013.5
20260508023038 51 0 0.0 0.0 0.00 0.07 0.07 77 1012.7
20260508022524 51 0 0.0 0.0 0.00 0.07 0.07 78 1012.5
20260508022024 51 0 0.0 1.0 0.00 0.07 0.07 78 1012.6
20260508021535 51 0 0.0 1.0 0.00 0.07 0.07 78 1012.6
20260508021027 51 0 0.0 0.0 0.00 0.07 0.07 78 1012.6
20260508020524 51 0 0.0 0.0 0.00 0.07 0.07 78 1012.5
20260508020046 50 0 0.0 0.0 0.00 0.07 0.07 78 1012.4
20260508015525 51 0 0.0 0.0 0.00 0.07 0.07 78 1012.3
20260508015024 51 0 0.0 0.0 0.00 0.07 0.07 78 1012.3
20260508014537 51 0 0.0 0.0 0.00 0.07 0.07 78 1012.2
20260508014025 51 0 0.0 0.0 0.00 0.07 0.07 77 1012.2
20260508013526 51 0 0.0 0.0 0.00 0.07 0.07 77 1012.1
20260508013038 51 0 0.0 0.0 0.00 0.07 0.07 76 1012.1
20260508012526 52 0 0.0 0.0 0.00 0.07 0.07 76 1012.1
20260508012028 52 0 0.0 0.0 0.00 0.07 0.07 75 1012.2
20260508011548 52 0 0.0 0.0 0.00 0.07 0.07 75 1012.1
20260508011026 53 0 0.0 3.0 0.00 0.07 0.07 75 1012.1
20260508010526 53 0 0.0 3.0 0.00 0.07 0.07 74 1012.1
20260508010056 53 0 0.0 1.0 0.00 0.07 0.07 73 1012.0
20260508005534 54 0 0.0 0.0 0.00 0.07 0.07 73 1011.9
20260508005026 54 0 0.0 0.0 0.00 0.07 0.07 72 1011.8
20260508004554 54 0 0.0 0.0 0.00 0.07 0.07 72 1011.7
20260508004026 55 0 0.0 3.0 0.00 0.07 0.07 72 1011.7
20260508003526 55 0 0.0 3.0 0.00 0.07 0.07 71 1011.7
20260508003046 55 0 0.0 3.0 0.00 0.07 0.07 70 1011.9
20260508002526 56 0 0.0 2.0 0.00 0.07 0.07 69 1011.9
20260508002028 56 0 0.0 1.0 0.00 0.07 0.07 69 1012.0
20260508001547 56 0 0.0 4.0 0.00 0.07 0.07 68 1012.0
20260508001026 56 0 0.0 4.0 0.00 0.07 0.07 69 1012.0
20260508000530 56 0 0.0 3.0 0.00 0.07 0.07 68 1012.0
20260508000045 56 0 0.0 1.0 0.00 0.07 0.07 70 1011.9
20260507235529 56 0 0.0 3.0 0.00 0.07 0.07 70 1012.0
20260507235029 56 0 0.0 3.0 0.00 0.07 0.07 69 1012.1
20260507234541 56 0 0.0 3.0 0.00 0.07 0.07 68 1012.3
20260507234026 56 0 0.0 3.0 0.00 0.07 0.07 68 1012.3
20260507233528 57 0 0.0 3.0 0.00 0.07 0.07 66 1012.2
20260507233040 57 0 0.0 3.0 0.00 0.07 0.07 64 1012.2
20260507232527 57 0 0.0 3.0 0.00 0.07 0.07 66 1012.2
20260507232026 57 0 0.0 8.0 0.00 0.07 0.07 65 1012.4
20260507231541 58 0 1.0 8.0 0.00 0.07 0.07 64 1012.4
20260507231027 58 0 1.0 6.0 0.00 0.07 0.07 64 1012.4
20260507230530 58 0 0.0 7.0 0.00 0.07 0.07 63 1012.3
20260507230039 58 0 1.0 8.0 0.00 0.07 0.07 63 1012.4
20260507225526 58 0 1.0 8.0 0.00 0.07 0.07 62 1012.4
20260507225030 59 287 1.0 9.0 0.00 0.07 0.07 63 1012.5
20260507224537 59 287 5.0 9.0 0.00 0.07 0.07 63 1012.4
20260507224026 59 0 0.0 7.0 0.00 0.07 0.07 60 1012.4
20260507223530 59 0 1.0 13.0 0.00 0.07 0.07 61 1012.4
20260507223043 58 0 1.0 13.0 0.00 0.07 0.07 61 1012.2
20260507222526 58 287 3.0 11.0 0.00 0.07 0.07 59 1012.4
20260507222026 59 287 0.0 7.0 0.00 0.07 0.07 61 1012.4
20260507221539 59 0 1.0 7.0 0.00 0.07 0.07 58 1012.5
20260507221026 60 0 0.0 4.0 0.00 0.07 0.07 58 1012.4
20260507220526 60 0 0.0 4.0 0.01 0.07 0.07 60 1012.4
20260507220039 60 0 0.0 4.0 0.01 0.07 0.07 58 1012.5
20260507215529 60 0 0.0 7.0 0.01 0.07 0.07 59 1012.5
20260507215026 60 0 1.0 10.0 0.01 0.07 0.07 58 1012.4
20260507214538 60 287 0.0 10.0 0.01 0.07 0.07 61 1012.5
20260507214027 60 287 2.0 9.0 0.01 0.07 0.07 59 1012.4
20260507213527 60 0 2.0 9.0 0.01 0.07 0.07 61 1012.4
20260507213050 60 287 1.0 8.0 0.01 0.07 0.07 66 1012.4
20260507212526 59 287 0.0 8.0 0.01 0.07 0.07 66 1012.5
20260507212027 58 287 1.0 8.0 0.01 0.07 0.07 66 1012.4
20260507211544 58 0 0.0 8.0 0.01 0.07 0.07 73 1012.5
20260507211026 57 0 0.0 8.0 0.01 0.07 0.07 70 1012.8
20260507210527 57 0 1.0 8.0 0.00 0.06 0.06 66 1013.2
20260507210045 57 0 0.0 9.0 0.00 0.06 0.06 64 1012.9
20260507205527 58 287 0.0 9.0 0.00 0.06 0.06 64 1012.8
20260507205028 58 0 0.0 8.0 0.01 0.06 0.06 62 1012.8
20260507204548 59 287 1.0 8.0 0.02 0.06 0.06 64 1012.9
20260507204027 59 0 0.0 8.0 0.02 0.06 0.06 68 1012.8
20260507203527 59 0 1.0 8.0 0.02 0.06 0.06 65 1012.8
20260507203038 59 0 1.0 8.0 0.02 0.06 0.06 68 1012.9
20260507202526 58 0 0.0 10.0 0.04 0.06 0.06 71 1012.9
20260507202027 57 0 1.0 10.0 0.05 0.06 0.06 76 1013.0
20260507201540 56 0 0.0 6.0 0.06 0.06 0.06 79 1013.0
20260507201026 55 0 0.0 4.0 0.06 0.06 0.06 78 1013.0
20260507200526 54 287 0.0 9.0 0.06 0.06 0.06 82 1013.1
20260507200042 53 0 1.0 9.0 0.06 0.06 0.06 80 1013.3
20260507195527 52 0 0.0 4.0 0.06 0.06 0.06 78 1013.5
20260507195026 52 0 0.0 7.0 0.05 0.05 0.05 78 1013.8
20260507194540 52 0 0.0 7.0 0.04 0.04 0.04 80 1013.7
20260507194025 52 287 1.0 7.0 0.04 0.04 0.04 83 1013.7
20260507193527 51 287 0.0 9.0 0.04 0.04 0.04 80 1013.7
20260507193040 51 0 2.0 9.0 0.04 0.04 0.04 78 1014.4
20260507192526 52 287 2.0 9.0 0.02 0.02 0.02 75 1014.8
20260507192026 53 0 2.0 9.0 0.01 0.01 0.01 73 1014.6
20260507191539 54 0 0.0 1.0 0.00 0.00 0.00 69 1014.7
20260507191027 54 0 0.0 1.0 0.00 0.00 0.00 67 1014.4
20260507190526 55 0 0.0 4.0 0.00 0.00 0.00 67 1014.2
20260507190045 56 0 0.0 7.0 0.00 0.00 0.00 65 1013.7
20260507185526 56 0 0.0 12.0 0.00 0.00 0.00 65 1013.4
20260507185029 57 0 0.0 18.0 0.00 0.00 0.00 60 1013.6
20260507184544 58 287 6.0 18.0 0.00 0.00 0.00 53 1013.8
20260507184027 60 287 6.0 18.0 0.00 0.00 0.00 40 1013.3
20260507183526 61 287 1.0 11.0 0.00 0.00 0.00 42 1013.0
20260507183042 61 287 1.0 10.0 0.00 0.00 0.00 41 1013.0
20260507182526 62 287 1.0 13.0 0.00 0.00 0.00 40 1013.0
20260507182027 62 0 4.0 14.0 0.00 0.00 0.00 39 1013.0
20260507181538 64 287 6.0 14.0 0.00 0.00 0.00 36 1012.9
20260507181027 65 287 5.0 14.0 0.00 0.00 0.00 37 1012.9
20260507180525 64 287 2.0 13.0 0.00 0.00 0.00 37 1013.1
20260507180044 65 287 3.0 13.0 0.00 0.00 0.00 37 1013.2
20260507175526 63 287 3.0 10.0 0.00 0.00 0.00 39 1013.2
20260507175026 63 287 4.0 10.0 0.00 0.00 0.00 38 1013.2
20260507174540 63 287 3.0 11.0 0.00 0.00 0.00 38 1013.5